Regional Weather Roundup
Issued by NWS

Home | Current Version | Previous Version | Text Only | Print | Product List | Glossary Off
Versions: 1 2 3 4 5 6 7 8 9 10 11 12 13 14 15 16 17 18 19 20 21 22 23 24 25 26 27 28 29 30 31 32 33 34 35 36 37 38 39 40 41 42 43 44 45 46 47 48 49 50

000
ASUS43 KLSX 010407
RWRMO

WEATHER SUMMARY FOR MISSOURI
NATIONAL WEATHER SERVICE SPRINGFIELD MO
1100 PM CDT SUN APR 30 2017

NOTE: "FAIR" INDICATES FEW OR NO CLOUDS BELOW 12,000 FEET WITH NO
       SIGNIFICANT WEATHER AND/OR OBSTRUCTIONS TO VISIBILITY.
       CURRENT SKY AND/OR WEATHER CONDITIONS ARE NOT AVAILABLE FOR
       CHILLICOTHE AND FARMINGTON.

MOZ001>031-035>038-043-044-053-054-010500-
...NORTHERN AND WESTERN MISSOURI...

CITY           SKY/WX    TMP DP  RH WIND       PRES   REMARKS
KANSAS CTY INT CLOUDY    44  40  85 S5        29.45F
KANSAS C DTWN  CLOUDY   N/A N/A N/A S9        29.46F
LEE`S SUMMIT   MOCLDY    46  40  79 S12       29.47F
ST JOSEPH      CLOUDY    46  43  89 S5        29.46F
CHILLICOTHE      N/A     49  41  74 SE3       29.49F
KIRKSVILLE     CLOUDY    49  31  49 SW9       29.51F

$$
MOZ066>068-077>081-088>096-101>105-010500-
...SOUTHWEST MISSOURI...

CITY           SKY/WX    TMP DP  RH WIND       PRES   REMARKS
SPRINGFIELD    CLOUDY    50  37  61 S17       29.55F
JOPLIN         LGT RAIN  48  41  76 SW25G44   29.54S
BRANSON        CLOUDY    48  34  57 SW9G21    29.62S

$$
MOZ032>034-039>042-045>050-055>058-069>072-010500-
...CENTRAL MISSOURI...

CITY           SKY/WX    TMP DP  RH WIND       PRES   REMARKS
COLUMBIA       CLOUDY    52  41  66 SW20G30   29.54S
JEFFERSON CITY CLOUDY    57  39  51 SW17G26   29.55S
ROLLA          CLOUDY    52  40  63 SW18G24   29.56R
SEDALIA        CLOUDY    50  42  74 S12       29.51F
WHITEMAN AFB   CLOUDY    48  42  81 S16G24    29.48F
OSAGE BEACH    CLOUDY    49  40  71 S12       29.55F

$$
MOZ051-052-059>065-010500-
...EAST CENTRAL MISSOURI...

CITY           SKY/WX    TMP DP  RH WIND       PRES   REMARKS
ST LOUIS INTL  PTCLDY    63  46  54 S15G23    29.53S
SPIRIT OF STL  MOCLDY    60  50  69 W6          N/A
ST CHARLES     PTCLDY    61  49  64 SW12      29.52R

$$
MOZ072>076-082>087-097>100-106>115-010500-
...SOUTH CENTRAL AND SOUTHEAST MISSOURI...

CITY           SKY/WX    TMP DP  RH WIND       PRES   REMARKS
CAPE GIRARDEAU CLEAR     60  50  69 SW23G31   29.65S
FARMINGTON     PTCLDY    56  47  71 SW14G24   29.60R
POPLAR BLUFF   CLEAR     58  44  60 S13       29.66S
WEST PLAINS    LGT RAIN  49  44  83 SW15G26   29.64R

$$



USA.gov is the U.S. government's official web portal to all federal, state and local government web resources and services.